Chicago DuPage, IL

1:00 AM CDT on April 29, 2017 (GMT -0500)
Du Page

Weather History for KDPA - November, 2013

Change the Weather History Date:

Saturday, November 9, 2013

  Actual Average Record
Temperature  
Mean Temperature 49 °F 44 °F  
Max Temperature 58 °F 53 °F 73 °F (1999)
Min Temperature 39 °F 34 °F 25 °F (2001)
Degree Days  
Heating Degree Days 16 21  
Month to date heating degree days 194 178  
Since 1 July heating degree days 757 689  
Cooling Degree Days 0 0  
Month to date cooling degree days 0 0  
Year to date cooling degree days 745 814  
Moisture  
Dew Point 35 °F    
Average Humidity 61    
Maximum Humidity 76    
Minimum Humidity 47    
Precipitation  
Precipitation 0.00 in 0.10 in 1.13 in (2000)
Month to date precipitation 0.84 0.95  
Year to date precipitation 32.81 33.06  
Sea Level Pressure  
Sea Level Pressure 29.95 in    
Wind  
Wind Speed 17 mph (WSW)    
Max Wind Speed 26 mph    
Max Gust Speed 39 mph    
Visibility 10 miles    
Events      
T = Trace of Precipitation, MM = Missing Value Source: NWS Daily Summary

Daily Weather History Graph

Daily Weather History Graph

Search for Another Location

Airport or City:

Trip Planner

Search our weather history database for the weather conditions in past years. The results will help you decide how hot, cold, wet, or windy it might be!

Date:

Astronomy

Nov. 09, 2013 Rise Set
Actual Time 6:35 AM CST 4:37 PM CST
Civil Twilight 6:06 AM CST 5:07 PM CST
Nautical Twilight 5:32 AM CST 5:40 PM CST
Astronomical Twilight 4:59 AM CST 6:13 PM CST
Moon 12:11 PM CST (11/9) 11:08 PM CST (11/9)
Length of Visible Light 11h 01m
Length of Day
10h 01m
Waxing Crescent, 44% of the Moon is Illuminated
Nov 9
Waxing Crescent
Nov 9
First Quarter
Nov 17
Full
Nov 25
Last Quarter
Dec 2
New

Hourly Weather History & Observations

Time (CST) Temp. Windchill Dew Point Humidity Pressure Visibility Wind Dir Wind Speed Gust Speed Precip Events Conditions
12:52 AM 46.0 °F 39.3 °F 33.1 °F 61% 29.92 in 10.0 mi SSW 16.1 mph 25.3 mph N/A   Clear
1:52 AM 46.0 °F 39.0 °F 33.1 °F 61% 29.89 in 10.0 mi SSW 17.3 mph 24.2 mph N/A   Clear
2:52 AM 46.9 °F - 34.0 °F 61% 29.88 in 10.0 mi SSW 19.6 mph 32.2 mph N/A   Clear
3:52 AM 45.0 °F 37.6 °F 35.1 °F 68% 29.86 in 10.0 mi SSW 17.3 mph 28.8 mph N/A   Clear
4:52 AM 45.0 °F 37.9 °F 35.1 °F 68% 29.86 in 10.0 mi SSW 16.1 mph - N/A   Clear
5:52 AM 44.1 °F 36.8 °F 36.0 °F 73% 29.86 in 10.0 mi SW 16.1 mph - N/A   Clear
6:52 AM 44.1 °F 36.5 °F 36.0 °F 73% 29.88 in 10.0 mi SW 17.3 mph - N/A   Clear
7:52 AM 46.0 °F 39.6 °F 37.9 °F 73% 29.89 in 10.0 mi SW 15.0 mph 20.7 mph N/A   Mostly Cloudy
8:52 AM 50.0 °F - 39.0 °F 66% 29.89 in 10.0 mi SW 16.1 mph - N/A   Clear
9:52 AM 53.1 °F - 39.0 °F 59% 29.90 in 10.0 mi WSW 23.0 mph 28.8 mph N/A   Clear
10:52 AM 55.0 °F - 39.0 °F 55% 29.91 in 10.0 mi West 21.9 mph 28.8 mph N/A   Clear
11:52 AM 57.0 °F - 39.0 °F 51% 29.91 in 10.0 mi West 23.0 mph 31.1 mph N/A   Mostly Cloudy
12:52 PM 55.9 °F - 37.9 °F 51% 29.90 in 10.0 mi West 17.3 mph 27.6 mph N/A   Overcast
1:52 PM 55.9 °F - 37.9 °F 51% 29.91 in 10.0 mi West 17.3 mph 32.2 mph N/A   Scattered Clouds
2:52 PM 57.0 °F - 37.0 °F 47% 29.93 in 10.0 mi West 20.7 mph 28.8 mph N/A   Mostly Cloudy
3:52 PM 55.0 °F - 37.0 °F 51% 29.95 in 10.0 mi West 18.4 mph 31.1 mph N/A   Partly Cloudy
4:52 PM 51.1 °F - 37.0 °F 59% 29.98 in 10.0 mi West 11.5 mph - N/A   Clear
5:52 PM 48.9 °F - 37.9 °F 66% 30.00 in 10.0 mi West 15.0 mph - N/A   Clear
6:52 PM 46.9 °F - 37.0 °F 68% 30.04 in 10.0 mi West 11.5 mph - N/A   Clear
7:52 PM 46.9 °F - 36.0 °F 66% 30.04 in 10.0 mi West 13.8 mph - N/A   Partly Cloudy
8:52 PM 43.0 °F 38.2 °F 36.0 °F 76% 30.06 in 10.0 mi West 8.1 mph - N/A   Partly Cloudy
9:52 PM 44.1 °F 34.8 °F 28.9 °F 55% 30.09 in 10.0 mi WNW 25.3 mph 33.4 mph N/A   Clear
10:52 PM 41.0 °F 33.1 °F 26.1 °F 55% 30.12 in 10.0 mi West 15.0 mph 23.0 mph N/A   Clear
11:52 PM 39.0 °F 31.8 °F 25.0 °F 57% 30.13 in 10.0 mi West 11.5 mph - N/A   Clear